When you browse on this site, cookies collect data to enhance your experience and personalize the content and advertising you see.
Visit our Privacy Policy to learn more. By continuing to use the site, you agree to this use of cookies and data.
  • In Spain
  • List of Countries
  • For 7 days
  • Water Temperature
  • Satellite Maps
  • Weather Map
  • Weather Widgets
  • user-avatar
    Login

    Hourly Weather Bashino

    Today, 18 June, Tuesday

    Time Temperature Precipitation Wind Pressure Humidity
    00:00 +16°C° 0 mm 2 mps 741 mmHg 84%
    01:00 +16°C° 0 mm 2 mps 741 mmHg 86%
    02:00 +15°C° 0 mm 2 mps 741 mmHg 88%
    03:00 +15°C° 0 mm 2 mps 741 mmHg 90%
    04:00 +16°C° 0 mm 2 mps 741 mmHg 89%
    05:00 +16°C° 0 mm 2 mps 741 mmHg 89%
    06:00 +17°C° 0 mm 2 mps 741 mmHg 88%
    07:00 +19°C° 0 mm 2 mps 741 mmHg 83%
    08:00 +20°C° 0 mm 2 mps 741 mmHg 79%
    09:00 +23°C° 0 mm 2 mps 741 mmHg 74%
    10:00 +24°C° 0.2 mm 2 mps 741 mmHg 71%
    11:00 +25°C° 0.2 mm 2 mps 741 mmHg 67%
    12:00 +26°C° 0.2 mm 2 mps 741 mmHg 64%
    13:00 +26°C° 0.6 mm 3 mps 741 mmHg 64%
    14:00 +26°C° 0.6 mm 3 mps 741 mmHg 63%
    15:00 +26°C° 0.6 mm 3 mps 741 mmHg 62%
    16:00 +26°C° 0.1 mm 3 mps 740 mmHg 64%
    17:00 +26°C° 0.1 mm 2 mps 740 mmHg 65%
    18:00 +26°C° 0.1 mm 2 mps 740 mmHg 67%
    19:00 +24°C° 0 mm 2 mps 741 mmHg 71%
    20:00 +21°C° 0 mm 2 mps 741 mmHg 75%
    21:00 +19°C° 0 mm 3 mps 741 mmHg 80%
    22:00 +18°C° 0 mm 3 mps 741 mmHg 82%
    23:00 +17°C° 0 mm 3 mps 741 mmHg 84%

    Tomorrow, 19 June, Wednesday

    Time Temperature Precipitation Wind Pressure Humidity
    00:00 +16°C° 0 mm 3 mps 741 mmHg 86%
    01:00 +16°C° 0 mm 3 mps 742 mmHg 87%
    02:00 +14°C° 0 mm 3 mps 742 mmHg 87%
    03:00 +15°C° 0 mm 2 mps 742 mmHg 87%
    04:00 +15°C° 0 mm 2 mps 742 mmHg 85%
    05:00 +15°C° 0 mm 2 mps 742 mmHg 83%
    06:00 +16°C° 0 mm 2 mps 743 mmHg 81%
    07:00 +17°C° 0 mm 2 mps 743 mmHg 77%
    08:00 +19°C° 0 mm 3 mps 743 mmHg 73%
    09:00 +21°C° 0 mm 3 mps 743 mmHg 68%
    10:00 +22°C° 0 mm 3 mps 743 mmHg 64%
    11:00 +24°C° 0 mm 3 mps 743 mmHg 59%
    12:00 +25°C° 0 mm 3 mps 743 mmHg 54%
    13:00 +26°C° 0 mm 3 mps 743 mmHg 53%
    14:00 +26°C° 0 mm 3 mps 743 mmHg 53%
    15:00 +26°C° 0 mm 3 mps 743 mmHg 52%
    16:00 +26°C° 0 mm 2 mps 743 mmHg 55%
    17:00 +26°C° 0 mm 2 mps 743 mmHg 59%
    18:00 +26°C° 0 mm 1 mps 743 mmHg 62%
    19:00 +24°C° 0 mm 1 mps 743 mmHg 65%
    20:00 +22°C° 0 mm 1 mps 743 mmHg 69%
    21:00 +18°C° 0 mm 0 mps 743 mmHg 72%
    22:00 +19°C° 0 mm 1 mps 743 mmHg 74%
    23:00 +19°C° 0 mm 1 mps 744 mmHg 76%

    Day after tomorrow, 20 June, Thursday

    Time Temperature Precipitation Wind Pressure Humidity
    00:00 +18°C° 0 mm 1 mps 744 mmHg 79%
    01:00 +18°C° 0 mm 1 mps 744 mmHg 81%
    02:00 +16°C° 0 mm 1 mps 744 mmHg 82%
    03:00 +16°C° 0 mm 1 mps 744 mmHg 84%
    04:00 +16°C° 0 mm 1 mps 744 mmHg 83%
    05:00 +18°C° 0 mm 1 mps 744 mmHg 82%
    06:00 +19°C° 0 mm 1 mps 745 mmHg 81%
    07:00 +20°C° 0 mm 1 mps 745 mmHg 76%
    08:00 +22°C° 0 mm 1 mps 745 mmHg 70%
    09:00 +24°C° 0 mm 1 mps 745 mmHg 65%
    10:00 +25°C° 0 mm 1 mps 745 mmHg 59%
    11:00 +26°C° 0 mm 1 mps 745 mmHg 53%
    12:00 +26°C° 0 mm 0 mps 745 mmHg 48%
    13:00 +28°C° 0 mm 1 mps 745 mmHg 47%
    14:00 +28°C° 0 mm 1 mps 744 mmHg 46%
    15:00 +28°C° 0 mm 1 mps 744 mmHg 45%
    16:00 +28°C° 0 mm 1 mps 744 mmHg 50%
    17:00 +27°C° 0 mm 1 mps 744 mmHg 54%
    18:00 +27°C° 0 mm 1 mps 744 mmHg 59%
    19:00 +25°C° 0 mm 1 mps 744 mmHg 61%
    20:00 +23°C° 0 mm 1 mps 744 mmHg 64%
    21:00 +21°C° 0 mm 1 mps 744 mmHg 66%
    22:00 +20°C° 0 mm 1 mps 744 mmHg 69%
    23:00 +19°C° 0 mm 1 mps 744 mmHg 71%

    21 June, Friday

    Time Temperature Precipitation Wind Pressure Humidity
    00:00 +19°C° 0 mm 1 mps 744 mmHg 73%
    01:00 +18°C° 0 mm 1 mps 745 mmHg 75%
    02:00 +18°C° 0 mm 1 mps 745 mmHg 76%
    03:00 +18°C° 0 mm 1 mps 745 mmHg 78%
    04:00 +18°C° 0 mm 1 mps 745 mmHg 79%
    05:00 +19°C° 0 mm 1 mps 745 mmHg 79%
    06:00 +20°C° 0 mm 1 mps 745 mmHg 80%
    07:00 +21°C° 0 mm 1 mps 745 mmHg 76%
    08:00 +23°C° 0 mm 1 mps 745 mmHg 72%
    09:00 +25°C° 0 mm 1 mps 745 mmHg 67%
    10:00 +25°C° 0 mm 2 mps 745 mmHg 63%
    11:00 +26°C° 0 mm 2 mps 745 mmHg 59%
    12:00 +27°C° 0 mm 3 mps 745 mmHg 55%
    13:00 +27°C° 0 mm 3 mps 745 mmHg 56%
    14:00 +27°C° 0 mm 3 mps 745 mmHg 57%
    15:00 +27°C° 0 mm 3 mps 745 mmHg 58%
    16:00 +27°C° 0 mm 3 mps 745 mmHg 61%
    17:00 +27°C° 0 mm 2 mps 744 mmHg 64%
    18:00 +27°C° 0 mm 2 mps 744 mmHg 67%
    19:00 +25°C° 0 mm 2 mps 744 mmHg 71%
    20:00 +23°C° 0 mm 2 mps 744 mmHg 75%
    21:00 +21°C° 0 mm 1 mps 744 mmHg 79%
    22:00 +20°C° 0 mm 2 mps 744 mmHg 81%
    23:00 +19°C° 0 mm 2 mps 744 mmHg 83%

    22 June, Saturday

    Time Temperature Precipitation Wind Pressure Humidity
    00:00 +19°C° 0 mm 2 mps 745 mmHg 84%
    01:00 +19°C° 0 mm 2 mps 744 mmHg 84%
    02:00 +18°C° 0 mm 3 mps 744 mmHg 84%
    03:00 +18°C° 0 mm 3 mps 744 mmHg 84%
    04:00 +18°C° 0 mm 3 mps 744 mmHg 85%
    05:00 +19°C° 0 mm 3 mps 745 mmHg 85%
    06:00 +19°C° 0 mm 3 mps 745 mmHg 85%
    07:00 +21°C° 0 mm 3 mps 745 mmHg 81%
    08:00 +22°C° 0 mm 4 mps 745 mmHg 76%
    09:00 +25°C° 0 mm 4 mps 745 mmHg 72%
    10:00 +26°C° 0 mm 4 mps 745 mmHg 69%
    11:00 +27°C° 0 mm 4 mps 745 mmHg 65%
    12:00 +28°C° 0 mm 5 mps 744 mmHg 62%
    13:00 +28°C° 0 mm 5 mps 744 mmHg 61%
    14:00 +28°C° 0 mm 5 mps 744 mmHg 60%
    15:00 +28°C° 0 mm 5 mps 744 mmHg 60%
    16:00 +28°C° 0 mm 5 mps 744 mmHg 64%
    17:00 +28°C° 0 mm 4 mps 743 mmHg 67%
    18:00 +28°C° 0 mm 4 mps 743 mmHg 71%
    19:00 +26°C° 0 mm 4 mps 743 mmHg 76%
    20:00 +25°C° 0 mm 3 mps 744 mmHg 80%
    21:00 +22°C° 0 mm 3 mps 744 mmHg 85%
    22:00 +22°C° 0 mm 3 mps 744 mmHg 86%
    23:00 +21°C° 0 mm 3 mps 744 mmHg 86%

    23 June, Sunday

    Time Temperature Precipitation Wind Pressure Humidity
    00:00 +21°C° 0 mm 4 mps 744 mmHg 87%
    01:00 +20°C° 0 mm 3 mps 744 mmHg 89%
    02:00 +20°C° 0 mm 3 mps 744 mmHg 91%
    03:00 +19°C° 0 mm 3 mps 744 mmHg 92%
    04:00 +20°C° 0 mm 3 mps 744 mmHg 91%
    05:00 +20°C° 0 mm 3 mps 744 mmHg 89%
    06:00 +21°C° 0 mm 3 mps 744 mmHg 87%
    07:00 +22°C° 0 mm 3 mps 744 mmHg 83%
    08:00 +25°C° 0 mm 3 mps 744 mmHg 78%
    09:00 +26°C° 0 mm 3 mps 744 mmHg 74%
    10:00 +27°C° 0.4 mm 3 mps 744 mmHg 70%
    11:00 +28°C° 0.4 mm 4 mps 744 mmHg 67%
    12:00 +29°C° 0.4 mm 4 mps 744 mmHg 63%
    13:00 +29°C° 0.4 mm 4 mps 744 mmHg 63%
    14:00 +29°C° 0.4 mm 4 mps 744 mmHg 62%
    15:00 +29°C° 0.4 mm 3 mps 744 mmHg 62%
    16:00 +29°C° 0.2 mm 3 mps 744 mmHg 65%
    17:00 +29°C° 0.2 mm 2 mps 744 mmHg 68%
    18:00 +29°C° 0.2 mm 2 mps 744 mmHg 72%
    19:00 +27°C° 0.1 mm 2 mps 744 mmHg 75%
    20:00 +25°C° 0.1 mm 2 mps 744 mmHg 78%
    21:00 +24°C° 0.1 mm 2 mps 744 mmHg 81%
    22:00 +23°C° 0 mm 2 mps 744 mmHg 83%
    23:00 +21°C° 0 mm 2 mps 744 mmHg 85%
    Show more